Regional Weather Roundup
Issued by NWS

Home | Current Version | Previous Version | Text Only | Print | Product List | Glossary On
Versions: 1 2 3 4 5 6 7 8 9 10 11 12 13 14 15 16 17 18 19 20 21 22 23 24 25 26 27 28 29 30 31 32 33 34 35 36 37 38 39 40 41 42 43 44 45 46 47 48 49 50
000
ASUS43 KLMK 180810
RWRKY
KENTUCKY REGIONAL WEATHER ROUNDUP
NATIONAL WEATHER SERVICE LOUISVILLE KY
300 AM EST SUN FEB 18 2018

NOTE "FAIR" INDICATES FEW OR NO CLOUDS BELOW 12,000 FEET
WITH NO SIGNIFICANT WEATHER AND/OR OBSTRUCTIONS TO VISIBILITY.

KYZ001>023-026-027-061>063-070>075-180900-
WESTERN AND SOUTH CENTRAL KENTUCKY

CITY           SKY/WX    TMP DP  RH WIND       PRES   REMARKS
PADUCAH        FOG       30  28  92 CALM      30.29R VSB 1/4
HENDERSON      FAIR      32  31  96 CALM      30.30R
OWENSBORO      CLOUDY    34  32  92 CALM      30.30R
HOPKINSVILLE   FOG       32  32 100 N3        30.28R VSB 1/4
BOWLING GREEN  FAIR      36  34  92 CALM      30.30R
GLASGOW        FAIR     N/A N/A N/A CALM      30.29R
$$

KYZ024-025-028>034-038-045-046-053-180900-
NORTH CENTRAL KENTUCKY

CITY           SKY/WX    TMP DP  RH WIND       PRES   REMARKS
LOUISVILLE/SDF MOCLDY    36  30  79 CALM      30.28R
LOUISVILLE/LOU FAIR      35  30  82 CALM      30.29R
FORT KNOX      FAIR      36  30  80 W6        30.28S WCI  31
$$

KYZ035>037-039>044-047>052-055>060-089>105-180900-
NORTHEAST KENTUCKY

CITY           SKY/WX    TMP DP  RH WIND       PRES   REMARKS
LEXINGTON      CLOUDY    37  31  78 W5        30.26R WCI  33
COVINGTON      FAIR      34  31  88 NW9       30.23R WCI  27
FRANKFORT      FAIR      34  29  82 W3        30.25S
$$

KYZ054-064>069-076>088-106>120-180900-
SOUTHEAST KENTUCKY

CITY           SKY/WX    TMP DP  RH WIND       PRES   REMARKS
JACKSON        CLOUDY    39  35  86 W7        30.24R WCI  34
LONDON         MOCLDY    40  35  83 NW6       30.26R
SOMERSET       MOCLDY    37  32  81 N6        30.29R WCI  33
MIDDLESBORO    CLOUDY    44  37  78 N7        30.26R
MONTICELLO     NOT AVBL
$$




USA.gov is the U.S. government's official web portal to all federal, state and local government web resources and services.